Weather History for Cody, WY

Change the Weather History Date:

Tuesday, January 15, 2013

  Actual Average Record
Temperature  
Mean Temperature 15 °F -  
Max Temperature 24 °F 38 °F 61 °F (1938)
Min Temperature 6 °F 14 °F -20 °F (1916)
Degree Days  
Heating Degree Days 50    
Moisture  
Dew Point 9 °F    
Average Humidity 86    
Maximum Humidity 100    
Minimum Humidity 62    
Precipitation  
Precipitation 0.00 in - - ()
Sea Level Pressure  
Sea Level Pressure 30.06 in    
Wind  
Wind Speed 4 mph (NNE)    
Max Wind Speed 10 mph    
Max Gust Speed -    
Visibility 10 miles    
Events      
Averages and records for this station are not official NWS values.
T = Trace of Precipitation, MM = Missing Value Source: NWS Daily Summary

Daily Weather History Graph

Daily Weather History Graph

Search for Another Location

Airport:

Trip Planner

Search our weather history database for the weather conditions in past years. The results will help you decide how hot, cold, wet, or windy it might be!

Date:

Astronomy

Jan. 15, 2013 Rise Set
Actual Time 7:49 AM MST 5:02 PM MST
Civil Twilight 7:16 AM MST 5:35 PM MST
Nautical Twilight 6:40 AM MST 6:11 PM MST
Astronomical Twilight 6:05 AM MST 6:45 PM MST
Moon 9:44 AM MST (1/15) 10:09 PM MST (1/15)
Length of Visible Light 10h 18m
Length of Day
9h 13m
Waxing Crescent, 20% of the Moon is Illuminated
Jan 15
Waxing Crescent
Jan 18
First Quarter
Jan 26
Full
Feb 3
Last Quarter
Feb 10
New

Hourly Weather History & Observations

Time (MST) Temp. Windchill Dew Point Humidity Pressure Visibility Wind Dir Wind Speed Gust Speed Precip Events Conditions
12:15 AM 6.8 °F - 3.2 °F 85% 29.97 in 10.0 mi Calm Calm - N/A   Overcast
12:35 AM 8.6 °F - 5.0 °F 85% 29.97 in 10.0 mi Calm Calm - N/A   Overcast
12:55 AM 8.6 °F -2.6 °F 6.8 °F 92% 29.98 in 10.0 mi NNE 6.9 mph - N/A   Overcast
1:55 AM 8.6 °F -1.3 °F 5.0 °F 85% 29.99 in 10.0 mi NE 5.8 mph - N/A   Overcast
2:55 AM 8.6 °F - 6.8 °F 92% 29.99 in 10.0 mi Calm Calm - N/A   Overcast
3:15 AM 8.6 °F -1.3 °F 6.8 °F 92% 30.00 in 10.0 mi North 5.8 mph - N/A   Overcast
3:55 AM 8.6 °F - 6.8 °F 92% 30.01 in 10.0 mi Calm Calm - N/A   Overcast
4:15 AM 8.6 °F 2.0 °F 6.8 °F 92% 30.01 in 10.0 mi NNE 3.5 mph - N/A   Overcast
4:35 AM 8.6 °F 2.0 °F 6.8 °F 92% 30.01 in 10.0 mi NE 3.5 mph - N/A   Overcast
4:55 AM 8.6 °F 0.1 °F 6.8 °F 92% 30.01 in 10.0 mi NNE 4.6 mph - N/A   Overcast
5:15 AM 8.6 °F -1.3 °F 6.8 °F 92% 30.01 in 10.0 mi NNE 5.8 mph - N/A   Overcast
5:35 AM 6.8 °F -0.1 °F 5.0 °F 92% 30.01 in 10.0 mi NE 3.5 mph - N/A   Overcast
5:55 AM 6.8 °F -0.1 °F 6.8 °F 100% 30.02 in 10.0 mi North 3.5 mph - N/A   Overcast
6:15 AM 6.8 °F - 6.8 °F 100% 30.03 in 10.0 mi Calm Calm - N/A   Overcast
6:35 AM 8.6 °F 2.0 °F 6.8 °F 92% 30.03 in 10.0 mi ENE 3.5 mph - N/A   Overcast
6:55 AM 8.6 °F -1.3 °F 6.8 °F 92% 30.03 in 10.0 mi NE 5.8 mph - N/A   Overcast
7:15 AM 8.6 °F -1.3 °F 6.8 °F 92% 30.02 in 10.0 mi NNE 5.8 mph - N/A   Overcast
7:55 AM 6.8 °F -5.9 °F 5.0 °F 92% 30.03 in 10.0 mi NNE 8.1 mph - N/A   Clear
8:15 AM 6.8 °F -2.0 °F 6.8 °F 100% 30.04 in 10.0 mi NNE 4.6 mph - N/A   Mostly Cloudy
8:35 AM 8.6 °F -1.3 °F 8.6 °F 100% 30.05 in 10.0 mi North 5.8 mph - N/A   Overcast
8:55 AM 8.6 °F -1.3 °F 8.6 °F 100% 30.06 in 10.0 mi NNE 5.8 mph - N/A   Overcast
9:15 AM 8.6 °F -1.3 °F 8.6 °F 100% 30.05 in 10.0 mi NNE 5.8 mph - N/A   Mostly Cloudy
9:35 AM 8.6 °F -2.6 °F 6.8 °F 92% 30.06 in 10.0 mi NE 6.9 mph - N/A   Scattered Clouds
9:55 AM 10.4 °F 0.8 °F 8.6 °F 92% 30.05 in 10.0 mi NE 5.8 mph - N/A   Scattered Clouds
10:15 AM 10.4 °F 0.8 °F 8.6 °F 92% 30.05 in 10.0 mi NE 5.8 mph - N/A   Partly Cloudy
10:35 AM 10.4 °F 0.8 °F 8.6 °F 92% 30.06 in 10.0 mi NE 5.8 mph - N/A   Partly Cloudy
11:35 AM 12.2 °F 2.9 °F 10.4 °F 92% 30.05 in 10.0 mi NNE 5.8 mph - N/A   Overcast
11:55 AM 14.0 °F 8.2 °F 10.4 °F 86% 30.05 in 10.0 mi North 3.5 mph - N/A   Overcast
12:15 PM 15.8 °F 8.6 °F 10.4 °F 79% 30.04 in 10.0 mi ESE 4.6 mph - N/A   Scattered Clouds
12:35 PM 15.8 °F 10.2 °F 10.4 °F 79% 30.04 in 10.0 mi ENE 3.5 mph - N/A   Partly Cloudy
12:55 PM 15.8 °F 8.6 °F 10.4 °F 79% 30.04 in 10.0 mi NE 4.6 mph - N/A   Mostly Cloudy
1:15 PM 17.6 °F - 12.2 °F 79% 30.05 in 10.0 mi Calm Calm - N/A   Overcast
1:35 PM 17.6 °F 8.2 °F 10.4 °F 73% 30.05 in 10.0 mi NNE 6.9 mph - N/A   Mostly Cloudy
1:55 PM 17.6 °F 10.7 °F 10.4 °F 73% 30.04 in 10.0 mi NE 4.6 mph - N/A   Partly Cloudy
2:15 PM 15.8 °F 6.1 °F 10.4 °F 79% 30.04 in 10.0 mi NE 6.9 mph - N/A   Partly Cloudy
2:36 PM 15.8 °F 6.1 °F 10.4 °F 79% 30.05 in 10.0 mi NNE 6.9 mph - N/A   Scattered Clouds
2:55 PM 15.8 °F 5.1 °F 10.4 °F 79% 30.07 in 10.0 mi NNE 8.1 mph - N/A   Mostly Cloudy
3:35 PM 15.8 °F 6.1 °F 10.4 °F 79% 30.07 in 10.0 mi NE 6.9 mph - N/A   Partly Cloudy
3:55 PM 14.0 °F 6.5 °F 10.4 °F 86% 30.07 in 10.0 mi NE 4.6 mph - N/A   Clear
4:55 PM 14.0 °F - 10.4 °F 86% 30.11 in 10.0 mi Calm Calm - N/A   Clear
5:15 PM 14.0 °F 6.5 °F 10.4 °F 86% 30.11 in 10.0 mi NE 4.6 mph - N/A   Scattered Clouds
5:35 PM 15.8 °F 3.4 °F 10.4 °F 79% 30.10 in 10.0 mi SE 10.4 mph - N/A   Overcast
5:55 PM 15.8 °F - 10.4 °F 79% 30.11 in 10.0 mi Calm Calm - N/A   Scattered Clouds
6:35 PM 14.0 °F - 10.4 °F 86% 30.10 in 10.0 mi Calm Calm - N/A   Partly Cloudy
6:55 PM 19.4 °F - 14.0 °F 80% 30.11 in 10.0 mi Calm Calm - N/A   Partly Cloudy
7:15 PM 17.6 °F 12.3 °F 8.6 °F 68% 30.12 in 10.0 mi NW 3.5 mph - N/A   Clear
7:35 PM 12.2 °F 1.7 °F 8.6 °F 85% 30.13 in 10.0 mi NNE 6.9 mph - N/A   Clear
7:55 PM 12.2 °F 0.7 °F 8.6 °F 85% 30.13 in 10.0 mi NE 8.1 mph - N/A   Clear
8:15 PM 12.2 °F - 8.6 °F 85% 30.13 in 10.0 mi Calm Calm - N/A   Clear
8:35 PM 12.2 °F - 10.4 °F 92% 30.12 in 10.0 mi Calm Calm - N/A   Clear
8:55 PM 14.0 °F - 10.4 °F 86% 30.11 in 10.0 mi Calm Calm - N/A   Clear
9:15 PM 17.6 °F 12.3 °F 12.2 °F 79% 30.10 in 10.0 mi SSW 3.5 mph - N/A   Clear
9:35 PM 24.8 °F 20.5 °F 15.8 °F 69% 30.10 in 10.0 mi NNW 3.5 mph - N/A   Clear
9:55 PM 21.2 °F 10.9 °F 10.4 °F 63% 30.10 in 10.0 mi NW 9.2 mph - N/A   Clear
10:15 PM 15.8 °F 3.4 °F 5.0 °F 62% 30.10 in 10.0 mi North 10.4 mph - N/A   Clear
10:35 PM 14.0 °F 5.1 °F 10.4 °F 86% 30.11 in 10.0 mi NNE 5.8 mph - N/A   Clear
11:15 PM 17.6 °F 10.7 °F 10.4 °F 73% 30.12 in 10.0 mi NNE 4.6 mph - N/A   Clear
11:36 PM 21.2 °F 16.4 °F 17.6 °F 86% 30.11 in 10.0 mi WNW 3.5 mph - N/A   Clear
11:55 PM 14.0 °F 5.1 °F 6.8 °F 73% 30.12 in 10.0 mi West 5.8 mph - N/A   Clear